Wind_Speed
33 32 30 29 28 27 26 25 25 24 24 24 23 23 22 22 22 22 22 22 22 22 22 23 23 24 24 25 25 26 26 27 28 28 29 30 31 31 31 32 33 35 35
35 34 32 31 30 29 28 27 27 26 26 25 25 25 24 24 24 24 24 24 24 24 25 25 25 26 26 27 27 27 28 28 29 30 31 31 32 32 33 34 35 36 37
37 36 34 33 32 31 30 29 29 28 27 27 27 27 27 27 26 26 26 26 26 27 27 27 27 28 29 29 29 29 29 30 30 31 32 32 32 33 34 35 36 38 39
38 37 36 35 34 33 32 31 30 29 29 29 29 29 29 29 29 29 29 29 29 29 29 30 30 30 31 31 30 30 31 31 32 33 33 33 34 35 36 37 38 40 41
40 39 38 37 36 35 34 33 33 32 32 31 31 31 31 31 31 31 32 32 32 32 32 32 32 32 32 32 32 32 32 33 33 34 34 35 36 37 38 39 40 41 42
41 41 40 39 38 37 36 35 34 34 34 34 34 34 34 34 34 34 34 34 34 34 34 33 34 34 34 33 33 33 33 34 35 35 35 36 37 38 39 41 42 43 44
42 42 41 40 40 39 37 37 36 36 36 36 36 36 36 36 36 36 36 36 36 36 37 37 36 35 35 35 35 35 35 36 37 37 37 37 38 40 41 43 44 44 45
43 43 42 41 40 40 39 39 39 38 38 37 38 38 38 37 37 37 37 37 38 38 38 37 37 37 36 36 37 37 38 38 38 38 38 39 40 42 43 44 45 46 46
44 44 44 43 42 42 42 41 41 41 40 40 40 40 40 39 38 37 37 38 38 38 37 37 37 37 37 37 38 39 39 39 39 39 39 40 42 43 45 46 47 47 47
45 46 45 44 44 44 43 44 44 43 43 43 42 42 41 41 40 39 39 39 39 39 38 38 38 39 40 39 39 40 40 40 41 41 42 43 44 45 46 47 48 48 47
45 45 45 45 44 45 46 46 45 45 45 45 45 45 44 43 43 42 42 41 41 40 40 39 40 40 41 41 41 41 41 42 42 43 44 45 46 47 47 48 48 48 47
45 45 46 46 47 47 48 48 47 48 48 47 47 46 45 44 45 45 44 43 43 42 41 40 41 42 42 42 42 43 43 43 44 44 45 46 47 48 48 48 48 48 47
46 46 46 47 48 48 48 48 49 49 49 49 49 48 47 47 47 47 46 45 45 44 43 43 43 43 43 43 43 43 44 44 44 45 46 47 48 48 48 48 49 49 47
46 47 47 47 49 50 50 50 51 51 51 51 52 51 49 49 49 48 48 48 47 47 46 46 45 44 44 45 44 45 44 44 45 46 47 48 49 49 49 49 49 49 46
45 46 47 49 50 52 52 53 53 53 53 52 52 52 52 52 52 50 48 49 48 48 46 45 47 46 45 45 45 44 45 45 46 46 47 49 49 50 50 50 49 47 45
43 44 46 47 48 50 52 53 54 54 53 53 53 54 52 52 51 50 49 49 48 46 44 45 46 46 45 45 45 45 45 45 46 47 49 49 49 49 50 49 47 45 44
40 42 43 44 45 47 50 52 53 53 54 54 53 53 53 53 52 50 50 48 47 47 46 45 45 45 46 46 46 46 47 48 49 49 49 49 49 49 49 47 45 44 42
42 44 44 45 47 49 49 50 51 51 51 51 52 52 52 52 51 51 50 49 48 48 47 46 47 47 47 47 47 47 48 49 49 49 48 48 48 48 47 45 44 42 40
41 42 43 44 46 47 47 48 50 50 49 49 49 49 50 50 49 49 48 47 46 46 45 46 46 46 48 48 48 48 49 48 48 48 48 47 47 46 45 44 42 40 38
37 38 40 41 43 44 45 46 47 47 48 48 48 48 48 48 47 48 47 46 45 45 44 45 46 47 48 48 48 47 47 47 47 47 47 46 46 45 43 41 40 39 38
34 34 36 38 40 41 42 44 44 45 46 46 47 46 45 45 45 44 44 44 45 45 45 46 46 46 46 46 46 46 46 46 46 46 46 46 45 43 41 40 39 38 37
35 35 35 36 37 39 40 41 42 43 43 44 43 42 42 42 43 44 44 44 45 45 46 45 45 45 45 45 44 45 45 45 46 45 45 44 43 42 40 39 38 37 36
35 37 38 38 38 38 38 39 39 41 41 41 41 41 41 42 42 43 44 44 44 44 44 44 44 44 44 43 44 44 45 45 45 44 43 42 41 40 38 38 37 36 36
36 37 39 39 39 39 39 39 40 40 40 40 40 40 41 42 44 45 44 44 44 43 43 44 44 44 44 44 45 45 44 44 43 42 41 41 40 39 38 37 36 36 35
37 39 39 39 40 40 40 40 40 39 39 40 40 40 41 42 42 43 44 44 44 44 43 43 44 44 44 44 44 44 43 42 41 41 40 39 39 38 37 36 35 35 34
38 39 39 39 40 40 40 40 40 39 39 39 40 40 41 41 41 42 43 43 44 44 44 43 42 43 43 43 43 42 42 41 41 40 40 39 38 37 36 35 35 34 33
Wind_Direction
237 239 240 242 244 245 246 248 250 251 252 254 256 258 260 262 264 266 269 272 275 278 281 284 287 290 292 295 297 299 301 303 304 306 309 311 313 314 314 316 316 315 315
238 239 241 242 244 245 247 249 250 251 252 254 256 257 260 262 264 267 270 272 276 279 281 284 287 289 291 293 295 296 299 301 302 304 306 309 310 312 313 314 314 314 313
237 239 241 242 244 246 247 248 249 251 253 255 257 258 260 263 266 268 270 272 275 279 281 283 285 287 289 291 293 294 296 299 301 303 305 307 308 310 312 312 313 313 312
237 239 241 242 244 246 248 249 250 251 254 257 258 259 261 264 267 269 271 273 275 278 281 282 284 285 288 290 291 292 294 297 300 302 304 305 306 308 310 310 311 311 311
238 239 241 242 244 246 248 249 250 252 255 258 260 261 262 265 268 270 272 274 275 277 280 281 283 285 287 288 289 290 292 295 298 301 302 304 305 307 308 309 310 310 309
240 241 242 244 245 247 249 251 252 253 256 258 260 262 264 266 268 270 272 274 276 277 279 280 283 285 286 287 288 290 291 294 296 298 300 302 304 305 307 308 308 308 308
240 241 243 245 246 248 249 251 252 255 257 260 261 263 264 266 268 270 272 274 276 278 279 279 281 284 285 287 288 289 290 293 294 297 299 300 302 304 305 306 306 306 306
241 241 243 246 247 248 249 251 253 256 258 260 262 263 265 267 269 272 274 275 276 278 280 280 282 284 285 286 287 289 290 291 293 295 297 299 301 302 304 304 304 305 305
242 242 244 246 248 250 251 252 255 257 259 260 262 264 267 268 270 271 272 274 276 278 280 281 282 284 285 286 287 288 289 290 292 294 296 298 300 300 302 303 303 303 304
244 245 246 247 249 250 251 253 255 258 259 261 263 265 267 268 269 270 271 273 276 278 279 280 282 283 284 286 288 288 289 290 291 292 294 296 298 299 301 301 302 302 302
245 247 248 249 251 252 254 255 257 259 261 262 263 264 265 267 268 270 271 272 274 276 278 279 281 282 283 284 286 287 288 290 291 291 293 295 296 298 299 299 300 300 300
247 250 251 251 252 254 255 257 258 260 262 263 263 264 265 266 267 269 270 271 272 274 276 279 279 281 282 282 284 285 287 289 290 291 293 294 295 297 298 298 298 299 299
249 251 252 253 254 255 256 258 259 261 262 263 263 264 265 267 268 270 271 272 273 274 275 277 279 280 280 281 282 283 285 287 288 291 292 294 295 295 296 296 297 298 297
251 252 254 255 255 256 257 259 260 261 262 263 264 265 266 268 269 270 272 272 273 274 275 275 275 277 278 280 280 282 284 285 287 290 292 293 293 294 295 295 296 297 296
251 252 255 258 258 259 260 261 261 262 264 265 266 267 268 268 268 269 270 271 272 275 275 275 275 276 278 278 279 280 282 284 286 289 291 292 293 293 294 295 296 296 296
253 255 257 259 260 262 263 264 264 264 264 265 265 266 266 265 266 266 268 270 270 271 271 274 274 274 276 277 277 279 282 285 287 289 291 292 292 293 295 295 295 295 294
257 259 261 262 263 264 264 264 264 264 264 265 264 264 264 265 265 265 266 267 268 269 271 273 273 274 274 275 278 281 284 286 288 289 290 291 292 293 294 294 294 294 292
261 262 264 265 266 266 266 266 265 265 263 263 264 265 266 265 265 265 266 266 267 267 269 271 272 273 275 277 279 282 284 286 287 288 290 291 292 292 293 294 293 292 291
265 264 266 266 266 266 266 266 266 264 262 263 264 264 264 264 264 265 265 266 266 267 269 271 272 273 275 276 279 282 283 284 285 286 288 289 290 292 292 292 292 291 290
269 267 267 266 266 266 266 265 265 264 263 262 263 263 263 263 264 264 264 264 265 267 269 271 272 274 275 277 279 281 282 283 284 286 287 288 290 290 290 291 290 290 289
273 271 270 271 271 269 268 266 265 265 264 263 264 263 262 262 263 261 262 264 264 265 268 271 272 272 274 276 278 279 280 282 283 284 286 287 288 289 289 289 289 288 288
276 275 275 275 275 274 271 269 267 265 264 264 263 262 262 263 263 261 262 263 264 265 267 269 270 272 274 275 276 278 280 282 283 284 285 286 287 287 287 287 287 287 287
276 276 276 275 274 272 270 267 267 265 263 263 262 262 261 261 262 262 263 263 263 264 265 267 270 271 273 274 277 278 280 281 283 283 283 285 285 285 285 285 285 285 285
277 277 276 276 274 272 271 269 267 265 264 262 261 261 261 259 261 262 263 263 262 264 267 268 270 271 273 274 276 278 280 281 282 282 283 283 283 284 284 284 284 284 285
277 277 276 274 273 272 272 271 270 268 267 263 261 261 261 261 261 262 263 264 264 266 268 268 268 270 272 273 275 277 278 280 280 281 282 282 282 283 283 283 283 284 284
277 275 273 273 274 273 271 270 269 267 266 264 262 261 261 262 262 262 264 264 265 266 267 269 270 271 271 273 275 277 278 279 279 280 281 281 281 282 282 282 283 283 283
Height
5827 5830 5833 5835 5838 5840 5841 5843 5845 5846 5847 5849 5850 5851 5851 5852 5852 5853 5853 5853 5853 5852 5852 5851 5851 5850 5849 5848 5846 5845 5843 5841 5839 5837 5834 5832 5829 5827 5824 5821 5817 5814 5810
5821 5824 5827 5830 5832 5834 5836 5838 5840 5841 5843 5844 5845 5846 5847 5847 5847 5848 5848 5848 5848 5847 5847 5846 5846 5845 5844 5842 5841 5839 5838 5836 5834 5831 5829 5827 5824 5821 5818 5815 5812 5808 5805
5815 5818 5821 5824 5826 5829 5831 5832 5834 5836 5837 5839 5840 5841 5841 5842 5842 5843 5843 5843 5842 5842 5842 5841 5840 5839 5838 5837 5835 5834 5832 5830 5828 5826 5823 5821 5818 5815 5812 5809 5806 5803 5799
5808 5811 5814 5817 5820 5822 5825 5827 5828 5830 5832 5833 5834 5835 5836 5836 5837 5837 5837 5837 5837 5836 5836 5835 5834 5833 5832 5830 5829 5827 5826 5824 5822 5819 5817 5814 5812 5809 5806 5803 5799 5796 5792
5801 5805 5808 5810 5813 5816 5818 5820 5822 5824 5825 5827 5828 5829 5829 5830 5830 5831 5831 5831 5830 5830 5829 5829 5828 5827 5825 5824 5823 5821 5819 5817 5815 5813 5810 5808 5805 5802 5799 5796 5792 5789 5785
5794 5797 5800 5803 5806 5809 5811 5814 5815 5817 5819 5820 5821 5822 5823 5823 5824 5824 5824 5824 5823 5823 5822 5822 5821 5820 5819 5817 5816 5814 5812 5811 5808 5806 5803 5801 5798 5795 5792 5788 5785 5781 5777
5786 5789 5792 5796 5799 5802 5804 5806 5808 5810 5811 5813 5813 5814 5815 5816 5816 5817 5817 5816 5816 5815 5815 5814 5814 5813 5812 5810 5808 5807 5805 5803 5801 5799 5796 5793 5791 5788 5784 5781 5777 5772 5768
5778 5781 5784 5788 5791 5794 5796 5798 5800 5802 5803 5805 5806 5806 5807 5808 5809 5809 5809 5808 5808 5807 5807 5806 5805 5804 5804 5802 5801 5799 5797 5795 5793 5791 5788 5786 5783 5779 5776 5772 5768 5764 5759
5769 5773 5776 5779 5782 5785 5787 5790 5791 5793 5795 5796 5797 5798 5798 5800 5800 5801 5800 5800 5799 5799 5798 5797 5797 5796 5795 5794 5792 5791 5789 5787 5785 5782 5780 5777 5774 5771 5767 5763 5759 5755 5751
5761 5764 5767 5770 5773 5775 5778 5780 5782 5784 5785 5787 5788 5789 5789 5790 5791 5791 5792 5791 5791 5790 5790 5789 5788 5787 5786 5785 5783 5782 5780 5778 5776 5773 5771 5768 5765 5761 5757 5753 5749 5745 5741
5752 5755 5758 5761 5763 5766 5768 5770 5772 5774 5775 5777 5778 5779 5779 5780 5780 5781 5782 5782 5782 5781 5780 5780 5779 5778 5776 5775 5774 5772 5770 5768 5766 5763 5760 5758 5755 5751 5747 5743 5739 5736 5732
5743 5745 5748 5751 5753 5755 5757 5759 5761 5763 5764 5766 5767 5768 5769 5770 5771 5770 5771 5772 5772 5772 5771 5770 5769 5768 5767 5765 5764 5762 5760 5758 5755 5753 5750 5747 5744 5741 5737 5733 5729 5726 5722
5733 5736 5738 5740 5742 5744 5746 5748 5749 5751 5753 5754 5755 5757 5758 5759 5760 5760 5760 5761 5761 5761 5761 5760 5759 5757 5756 5755 5754 5752 5750 5748 5745 5743 5740 5737 5734 5730 5726 5723 5719 5715 5712
5723 5726 5727 5729 5731 5732 5734 5735 5737 5739 5740 5742 5743 5744 5746 5747 5748 5749 5749 5749 5749 5750 5750 5750 5748 5747 5745 5744 5743 5741 5739 5737 5734 5732 5729 5726 5723 5719 5716 5712 5708 5705 5702
5712 5714 5716 5718 5719 5720 5721 5722 5724 5725 5727 5728 5730 5731 5732 5734 5735 5737 5737 5737 5737 5738 5738 5738 5737 5735 5734 5733 5731 5730 5728 5726 5723 5721 5718 5715 5711 5708 5705 5701 5697 5694 5691
5702 5703 5704 5706 5706 5707 5708 5709 5709 5711 5712 5714 5715 5717 5718 5720 5722 5723 5724 5724 5725 5725 5725 5725 5724 5724 5722 5721 5720 5718 5717 5715 5712 5709 5707 5704 5700 5697 5693 5690 5686 5684 5681
5691 5692 5693 5694 5694 5694 5695 5695 5696 5696 5698 5700 5702 5703 5705 5706 5708 5709 5710 5711 5712 5712 5713 5713 5712 5711 5710 5709 5708 5707 5705 5703 5701 5698 5695 5692 5689 5686 5682 5679 5676 5673 5671
5680 5680 5681 5682 5682 5682 5682 5682 5683 5683 5684 5686 5688 5689 5691 5692 5694 5695 5696 5697 5698 5699 5699 5700 5700 5699 5698 5697 5696 5694 5693 5691 5689 5686 5684 5681 5678 5675 5671 5668 5666 5663 5661
5668 5668 5668 5669 5669 5669 5669 5670 5670 5671 5672 5673 5674 5676 5677 5678 5680 5681 5682 5684 5685 5686 5686 5687 5687 5686 5686 5685 5684 5682 5681 5679 5677 5675 5672 5669 5667 5664 5661 5658 5655 5653 5651
5656 5656 5656 5656 5656 5656 5656 5656 5656 5657 5658 5660 5661 5662 5663 5664 5666 5667 5669 5670 5672 5673 5673 5673 5673 5673 5673 5672 5671 5670 5669 5667 5665 5663 5660 5658 5655 5653 5650 5647 5645 5643 5641
5646 5645 5645 5644 5643 5643 5642 5642 5642 5643 5644 5646 5647 5647 5648 5650 5652 5653 5655 5657 5658 5660 5660 5660 5660 5660 5660 5659 5659 5658 5656 5655 5652 5651 5649 5646 5644 5642 5639 5637 5635 5633 5631
5635 5634 5633 5632 5631 5630 5629 5628 5628 5629 5630 5632 5633 5634 5636 5637 5639 5640 5642 5643 5644 5646 5647 5647 5647 5647 5647 5647 5646 5645 5644 5643 5641 5639 5637 5635 5633 5631 5629 5627 5625 5623 5621
5624 5623 5621 5620 5619 5617 5616 5616 5615 5616 5617 5619 5620 5621 5623 5624 5626 5627 5628 5630 5631 5632 5634 5635 5634 5635 5635 5634 5634 5633 5631 5630 5629 5627 5625 5624 5622 5620 5618 5616 5614 5613 5611
5612 5611 5609 5608 5606 5605 5604 5603 5603 5603 5605 5606 5608 5609 5611 5612 5613 5614 5616 5617 5618 5619 5620 5622 5622 5622 5622 5622 5621 5620 5619 5618 5617 5615 5614 5613 5611 5609 5607 5606 5604 5603 5601
5599 5598 5596 5595 5594 5593 5592 5591 5591 5591 5593 5594 5595 5597 5598 5600 5601 5602 5604 5604 5606 5607 5607 5609 5609 5610 5609 5609 5609 5608 5607 5606 5605 5604 5603 5602 5600 5598 5597 5595 5594 5592 5591
5586 5585 5583 5582 5582 5581 5580 5579 5579 5580 5581 5582 5583 5585 5586 5588 5589 5590 5591 5592 5594 5595 5596 5597 5597 5597 5597 5597 5597 5596 5596 5595 5594 5593 5591 5590 5589 5588 5587 5585 5584 5583 5581